Hourly Weather Roundup
Issued by NWS Central Illinois

Home | Current Version | Previous Version | Text Only | Print | Product List | Glossary On
Versions: 1 2 3 4 5 6 7 8 9 10 11 12 13 14 15 16 17 18 19 20 21 22 23 24 25 26 27 28 29 30 31 32 33 34 35 36 37 38 39 40 41 42 43 44 45 46 47 48 49 50
008
NZUS43 KILX 271610
HWRILX

AREA WEATHER ROUNDUP
NATIONAL WEATHER SERVICE, LINCOLN IL
1100 AM CDT WED JUL 27 2016


CITY           SKY/WX    TMP DP  RH WIND       PRES   REMARKS
BLOOMINGTON    MOSUNNY   81  69  67 SE8       30.05R HX  84
CHAMPAIGN      SUNNY     81  70  69 SE7       30.04R HX  84
DANVILLE       SUNNY     82  69  66 E3        30.02R HX  85
DECATUR        PTSUNNY   83  72  69 E6        30.03R HX  88
EFFINGHAM      CLOUDY    81  78  89 E6        30.03S HX  89
FLORA          CLOUDY    84  76  77 SE3       30.01F HX  93
GALESBURG      SUNNY     81  68  64 CALM      30.04R HX  84
JACKSONVILLE   CLOUDY    82  74  79 SW3       30.02R HX  87
LACON          PTSUNNY   83  68  62 SE5       30.03R HX  86
LAWRENCEVILLE  CLOUDY    82  75  79 E6        30.01F HX  89
LITCHFIELD     NOT AVBL
$$


CITY           SKY/WX    TMP DP  RH WIND       PRES   REMARKS
LINCOLN        PTSUNNY   82  72  72 SE5       30.03R HX  87
MACOMB         MOSUNNY   81  73  76 SE6       30.05R HX  85
MATTOON        MOSUNNY  N/A N/A N/A E7        30.02S
MT CARMEL AP   CLOUDY    81  75  83 N3        30.01S HX  87
OLNEY-NOBLE AP CLOUDY    81  77  89 CALM      30.02S HX  88
PARIS          SUNNY     82  71  69 CALM      30.05R HX  86
PEORIA         SUNNY     82  69  64 S6        30.03R HX  85
PONTIAC        SUNNY     83  72  70 E5        30.05R HX  88
RANTOUL        NOT AVBL
ROBINSON       CLOUDY    81  73  76 CALM      30.03S HX  85
SPRINGFIELD    CLOUDY    83  73  72 SE7       30.02R HX  89
TAYLORVILLE    MOSUNNY   81  73  77 MISG      30.02R HX  86
$$

...REGIONAL REPORTS...


CITY           SKY/WX    TMP DP  RH WIND       PRES   REMARKS
CHICAGO O`HARE MOSUNNY   85  63  47 CALM      30.01R HX  86
KANKAKEE       SUNNY     84  69  60 CALM      30.04R HX  88
MOLINE         SUNNY     83  70  64 VRB6      30.01S HX  87
MOUNT STERLING CLOUDY    79  74  86 SE3       30.02R HX  82
MOUNT VERNON   PTSUNNY   86  73  66 MISG      30.00S HX  93
PITTSFIELD     PTSUNNY   82  75  79 CALM      30.03R HX  89
QUINCY         MOSUNNY   82  76  81 CALM      30.01R HX  89
ROCKFORD       MOSUNNY   82  63  52 S5        30.04R HX  83
$$


CITY           SKY/WX    TMP DP  RH WIND       PRES   REMARKS
BURLINGTON     SUNNY     82  70  66 SE7       30.01F HX  86
CEDAR RAPIDS   MOSUNNY   81  69  67 SE6       30.01S HX  84
DES MOINES     CLOUDY    80  68  66 S8        30.00S HX  83
KIRKSVILLE     MOSUNNY   84  71  65 SE5       30.02S HX  89
OTTUMWA        SUNNY     80  66  62 SE5       30.01R HX  82
ST LOUIS       MOSUNNY   85  73  67 VRB3      30.00S HX  91
$$


CITY           SKY/WX    TMP DP  RH WIND       PRES   REMARKS
TERRE HAUTE    MOSUNNY   83  68  60 S5        30.03R HX  86
EVANSVILLE     MOSUNNY   86  76  71 VRB6      30.00S HX  96
INDIANAPOLIS   MOSUNNY   84  64  50 CALM      30.04R HX  85
LAFAYETTE      MOSUNNY   82  66  58 CALM      30.03R HX  84
MADISON        PTSUNNY   83  68  60 W3        30.02R HX  86
MILWAUKEE      PTSUNNY   86  68  54 NW5       30.00S HX  89
$$






USA.gov is the U.S. government's official web portal to all federal, state and local government web resources and services.